Regional Weather Roundup
Issued by NWS

Home | Current Version | Previous Version | Text Only | Print | Product List | Glossary On
Versions: 1 2 3 4 5 6 7 8 9 10 11 12 13 14 15 16 17 18 19 20 21 22 23 24 25 26 27 28 29 30 31 32 33 34 35 36 37 38 39 40 41 42 43 44 45 46 47 48 49 50
000
ASUS43 KDTX 241510
RWRMI
MICHIGAN HOURLY REGIONAL WEATHER ROUNDUP
NATIONAL WEATHER SERVICE DETROIT/PONTIAC MI
1000 AM EST FRI NOV 24 2017

NOTE: "FAIR" INDICATES FEW OR NO CLOUDS BELOW 12,000 FEET WITH NO
SIGNIFICANT WEATHER AND/OR OBSTRUCTION TO VISIBILITY.

MIZ047>049-052>055-059>063-066>070-074>076-081>083-241600-
SOUTHEAST LOWER MICHIGAN

CITY           SKY/WX    TMP DP  RH WIND       PRES   REMARKS
ADRIAN         SUNNY     36  27  69 SW15G21   29.84F WCI  27
ALMA           CLOUDY    37  30  74 S13G18    29.71F WCI  29
ANN ARBOR      SUNNY     36  28  73 S14       29.81F WCI  27
BAD AXE        MOSUNNY   40  28  61 SW14G22   29.71F WCI  32
CARO           SUNNY     42  28  58 S14G20    29.73F
DETROIT CITY   SUNNY     41  26  55 SW12      29.84F
DETROIT        PTSUNNY   40  27  59 S17       29.84F WCI  31
FLINT          MOSUNNY   40  26  57 S9        29.78F WCI  34
GROSSE ILE     SUNNY     40  29  65 S13       29.85F WCI  33
HILLSDALE      SUNNY     39  27  60 S12G17    29.81F WCI  32
HOWELL         MOSUNNY   41  28  58 SW12G17   29.78F

CITY           SKY/WX    TMP DP  RH WIND       PRES   REMARKS
JACKSON        SUNNY     44  25  47 S17G23    29.78F
LAMBERTVILLE   SUNNY     42  27  55 SW9       29.87F
LANSING        MOSUNNY   41  28  60 SW12      29.76F
LAPEER         FAIR      43  27  54 SW13      29.77F
MASON          MOSUNNY   41  28  58 SW6       29.77F
MONROE         SUNNY     41  27  57 S8        29.85F
MT. CLEMENS    MOSUNNY   43  28  55 S8        29.81S
PONTIAC        MOSUNNY   39  27  62 SW9G20    29.79S WCI  33
PORT HOPE        N/A     42  27  55 SW13G22   29.67F
PORT HURON     SUNNY     41  28  60 S12       29.81S
TRI CITIES     PTSUNNY   41  30  65 S15       29.71F
MIDLAND        FAIR      40  29  64 SW12      29.69F WCI  33
TROY           SUNNY     40  25  55 S12G18    29.83F WCI  33
SAGINAW HB     MOSUNNY   39  28  65 SW18G24   29.71F WCI  30
$$
MIZ043>046-050>051-056>058-064>065-071>073-077>080-241600-
SOUTHWEST LOWER MICHIGAN

CITY           SKY/WX    TMP DP  RH WIND       PRES   REMARKS
BATTLE CREEK   SUNNY     42  28  57 S14       29.78F
BENTON HARBOR  SUNNY     42  27  55 S13       29.77F
BIG RAPIDS     MOSUNNY   39  33  80 S9        29.65F WCI  33
COLDWATER      SUNNY     42  25  50 S9        29.80F
FREMONT        FAIR      38  35  87 S7        29.67F WCI  33
HOLLAND        MOSUNNY   42  31  64 S10       29.73F
GRAND RAPIDS   CLOUDY    41  30  65 SW12      29.73F
IONIA          FAIR      41  28  60 SW14G22   29.73F
KALAMAZOO      SUNNY     41  26  55 S13       29.78F
LUDINGTON      MOSUNNY   47  36  64 S17G29    29.61F
MARSHALL       SUNNY     42  26  53 SW12G20   29.77F
MOUNT PLEASANT LGT RAIN  40  28  62 SW8       29.68F WCI  34
MUSKEGON       MOSUNNY   47  36  65 S21G31    29.69F
SOUTH HAVEN    SUNNY     44  28  52 S13G18    29.75F
$$
MIZ016>042-241600-
NORTHERN LOWER MICHIGAN

CITY           SKY/WX    TMP DP  RH WIND       PRES   REMARKS
ALPENA         CLOUDY    41  33  73 SW15G24   29.54F
BEAVER ISLAND  CLOUDY    49  39  70 SW17G31   29.45F
BELLAIRE       CLOUDY    48  36  64 S5        29.52F
CADILLAC       CLOUDY    41  33  73 SW16G23   29.59F
CHARLEVOIX     MOSUNNY   48  34  58 S15G28    29.50F
FRANKFORT      PTSUNNY   50  36  58 S18G31    29.53F
GAYLORD        CLOUDY    41  31  67 SW15G28   29.51F
GRAYLING       PTSUNNY   39  31  72 S8        29.57F WCI  34
HARBOR SPRINGS CLOUDY    48  34  58 SW13G22   29.48F
HOUGHTON LAKE  PTSUNNY   39  32  76 SW9       29.61F WCI  33
MANISTEE       CLOUDY    50  36  58 S13G21    29.58F
OSCODA         CLOUDY    39  28  63 SW16G25   29.63F WCI  30
PELLSTON       MOSUNNY   50  34  54 SW23G36   29.45F
ROGERS CITY    CLOUDY    44  32  64 SW8       29.49F
TRAVERSE CITY  CLOUDY    46  33  60 SW14G23   29.52F
$$
MIZ007>008-015-241600-
EASTERN UPPER MICHIGAN

CITY           SKY/WX    TMP DP  RH WIND       PRES   REMARKS
KINROSS        LGT RAIN  44  36  73 SW18G25   29.41F
MACKINAC ISLAN CLOUDY    48  33  55 SW15G23   29.43F
NEWBERRY       CLOUDY    44  39  82 SW22G33   29.38S
S. S. MARIE    PTSUNNY   40  35  83 E3        29.41F
MUNISING         N/A     43  32  65 S18G30    29.30F
$$
MIZ004>006-011>014-085-241600-
CENTRAL UPPER MICHIGAN

CITY           SKY/WX    TMP DP  RH WIND       PRES   REMARKS
MANISTIQUE     CLOUDY    42  36  78 SW17G26   29.39F
ESCANABA       MOSUNNY   43  34  70 S13       29.39F
MENOMINEE      CLOUDY    46  32  58 SW14G20   29.43F
SAWYER-GWINN   SUNNY     37  30  75 S13       29.33F WCI  29
$$
MIZ001>003-009>011-084-241600-
WESTERN UPPER MICHIGAN

CITY           SKY/WX    TMP DP  RH WIND       PRES   REMARKS
IRON MOUNTAIN  CLOUDY    43  30  60 S5        29.34F
HOUGHTON       CLOUDY    43  33  68 S7        29.22F
COPPER HARBOR    N/A     49  34  56 VRB6      29.17F
IRONWOOD       CLOUDY    45  35  68 S13       29.26F
$$

ABBREVIATIONS USED IN REMARKS
   TC - TEMPERATURE IN CELSIUS
  WCI - WIND CHILL INDEX
   HX - HEAT INDEX
  VSB - VISIBILITY




USA.gov is the U.S. government's official web portal to all federal, state and local government web resources and services.